Satellite: NOAA-12 Catalog number: 21263 Epoch time: 14037.47713509 Element set: 156 Inclination: 098.6770 deg RA of node: 065.7504 deg Eccentricity: 0.0012875 Arg of perigee: 256.2064 deg Mean anomaly: 240.3452 deg Mean motion: 14.25623341 rev/day Decay rate: 1.43e-06 rev/day^2 Epoch rev: 18193 Checksum: 283
Satellite: MET-3/5 Catalog number: 21655 Epoch time: 14036.84947197 Element set: 896 Inclination: 082.5541 deg RA of node: 089.2235 deg Eccentricity: 0.0012118 Arg of perigee: 263.3909 deg Mean anomaly: 096.5834 deg Mean motion: 13.17051025 rev/day Decay rate: 2.82e-06 rev/day^2 Epoch rev: 8069 Checksum: 317
Satellite: MET-2/21 Catalog number: 22782 Epoch time: 14037.83754550 Element set: 970 Inclination: 082.5483 deg RA of node: 276.7316 deg Eccentricity: 0.0021076 Arg of perigee: 270.4946 deg Mean anomaly: 138.0264 deg Mean motion: 13.83723889 rev/day Decay rate: 3.6e-07 rev/day^2 Epoch rev: 3209 Checksum: 314
Satellite: OKEAN-4 Catalog number: 23317 Epoch time: 14037.20589598 Element set: 449 Inclination: 082.5388 deg RA of node: 190.6803 deg Eccentricity: 0.0021314 Arg of perigee: 169.6826 deg Mean anomaly: 346.4084 deg Mean motion: 14.85046718 rev/day Decay rate: 2.992e-05 rev/day^2 Epoch rev: 4366 Checksum: 331
Satellite: NOAA-14 Catalog number: 23455 Epoch time: 14037.45783911 Element set: 637 Inclination: 098.7855 deg RA of node: 123.1830 deg Eccentricity: 0.0010119 Arg of perigee: 057.0194 deg Mean anomaly: 071.6420 deg Mean motion: 14.13946588 rev/day Decay rate: 1.22e-06 rev/day^2 Epoch rev: 98547 Checksum: 308
Satellite: NOAA-15 Catalog number: 25338 Epoch time: 14037.48996205 Element set: 67 Inclination: 098.7447 deg RA of node: 031.6649 deg Eccentricity: 0.0011162 Arg of perigee: 162.5786 deg Mean anomaly: 309.0463 deg Mean motion: 14.25337822 rev/day Decay rate: 3.28e-06 rev/day^2 Epoch rev: 81822 Checksum: 318
Satellite: RESURS Catalog number: 25394 Epoch time: 14036.86347551 Element set: 581 Inclination: 098.3956 deg RA of node: 006.8868 deg Eccentricity: 0.0000245 Arg of perigee: 309.4434 deg Mean anomaly: 108.5150 deg Mean motion: 14.24365425 rev/day Decay rate: 8.6e-07 rev/day^2 Epoch rev: 80962 Checksum: 309
Satellite: FENGYUN1 Catalog number: 25730 Epoch time: 14037.14942383 Element set: 73 Inclination: 098.9021 deg RA of node: 359.1722 deg Eccentricity: 0.0027640 Arg of perigee: 114.5332 deg Mean anomaly: 339.3408 deg Mean motion: 14.11307635 rev/day Decay rate: 3.553e-05 rev/day^2 Epoch rev: 75903 Checksum: 282
Satellite: OKEAN-0 Catalog number: 25860 Epoch time: 14037.86889882 Element set: 167 Inclination: 098.0256 deg RA of node: 002.6642 deg Eccentricity: 0.0002055 Arg of perigee: 108.5224 deg Mean anomaly: 304.1425 deg Mean motion: 14.74950169 rev/day Decay rate: 1.207e-05 rev/day^2 Epoch rev: 78294 Checksum: 305
Satellite: NOAA-16 Catalog number: 26536 Epoch time: 14037.46056558 Element set: 554 Inclination: 099.0088 deg RA of node: 097.1516 deg Eccentricity: 0.0010710 Arg of perigee: 189.9741 deg Mean anomaly: 287.3591 deg Mean motion: 14.12982692 rev/day Decay rate: 2.50e-06 rev/day^2 Epoch rev: 68965 Checksum: 338
Satellite: NOAA-17 Catalog number: 27453 Epoch time: 14037.51811826 Element set: 458 Inclination: 098.3120 deg RA of node: 044.1341 deg Eccentricity: 0.0011703 Arg of perigee: 192.3066 deg Mean anomaly: 278.7419 deg Mean motion: 14.24682761 rev/day Decay rate: 2.67e-06 rev/day^2 Epoch rev: 60408 Checksum: 294
Satellite: NOAA-18 Catalog number: 28654 Epoch time: 14037.51300826 Element set: 942 Inclination: 099.1334 deg RA of node: 014.4973 deg Eccentricity: 0.0013337 Arg of perigee: 270.6674 deg Mean anomaly: 196.3526 deg Mean motion: 14.11940456 rev/day Decay rate: 2.89e-06 rev/day^2 Epoch rev: 44912 Checksum: 311
Satellite: NOAA-19 Catalog number: 33591 Epoch time: 14037.51390443 Element set: 115 Inclination: 098.9316 deg RA of node: 343.0423 deg Eccentricity: 0.0014922 Arg of perigee: 126.4853 deg Mean anomaly: 342.0943 deg Mean motion: 14.11635148 rev/day Decay rate: 2.14e-06 rev/day^2 Epoch rev: 25755 Checksum: 284
/EX SB KEPS @ AMSAT $ORB14037.M Orbital Elements 14037.MISC
HR AMSAT ORBITAL ELEMENTS FOR MANNED AND MISCELLANEOUS SATELLITES FROM WA5QGD FORT WORTH,TX February 6, 2014 BID: ORB14037.M TO ALL RADIO AMATEURS BT
Satellite: HUBBLE Catalog number: 20580 Epoch time: 14037.62645205 Element set: 432 Inclination: 028.4696 deg RA of node: 174.9587 deg Eccentricity: 0.0003147 Arg of perigee: 339.5337 deg Mean anomaly: 090.3434 deg Mean motion: 15.04617097 rev/day Decay rate: 4.899e-05 rev/day^2 Epoch rev: 10502 Checksum: 302
Satellite: ISS Catalog number: 25544 Epoch time: 14037.91046442 Element set: 631 Inclination: 051.6498 deg RA of node: 025.3811 deg Eccentricity: 0.0004186 Arg of perigee: 110.3661 deg Mean anomaly: 335.4213 deg Mean motion: 15.50081440 rev/day Decay rate: 1.0445e-04 rev/day^2 Epoch rev: 87111 Checksum: 253
Satellite: CO-58 Catalog number: 28895 Epoch time: 14037.12388207 Element set: 689 Inclination: 097.8459 deg RA of node: 245.7303 deg Eccentricity: 0.0018581 Arg of perigee: 066.7977 deg Mean anomaly: 293.5179 deg Mean motion: 14.61540823 rev/day Decay rate: 1.078e-05 rev/day^2 Epoch rev: 44110 Checksum: 350
Satellite: FALCON Catalog number: 30776 Epoch time: 14037.44583598 Element set: 796 Inclination: 035.4284 deg RA of node: 201.7543 deg Eccentricity: 0.0000782 Arg of perigee: 209.2951 deg Mean anomaly: 248.7651 deg Mean motion: 15.13558661 rev/day Decay rate: 1.1868e-04 rev/day^2 Epoch rev: 38089 Checksum: 332
Satellite: MAST Catalog number: 31126 Epoch time: 14036.86726208 Element set: 966 Inclination: 097.9018 deg RA of node: 024.7260 deg Eccentricity: 0.0093449 Arg of perigee: 044.7617 deg Mean anomaly: 016.9030 deg Mean motion: 14.54942220 rev/day Decay rate: 1.669e-05 rev/day^2 Epoch rev: 36129 Checksum: 303
Satellite: CAPE1 Catalog number: 31130 Epoch time: 14037.13955792 Element set: 971 Inclination: 097.9219 deg RA of node: 021.4911 deg Eccentricity: 0.0100887 Arg of perigee: 060.8858 deg Mean anomaly: 300.2395 deg Mean motion: 14.53981196 rev/day Decay rate: 1.575e-05 rev/day^2 Epoch rev: 36076 Checksum: 313
Satellite: COMPASS Catalog number: 32787 Epoch time: 14037.12163168 Element set: 849 Inclination: 097.7207 deg RA of node: 094.3717 deg Eccentricity: 0.0013078 Arg of perigee: 251.7870 deg Mean anomaly: 108.1923 deg Mean motion: 14.86775406 rev/day Decay rate: 7.615e-05 rev/day^2 Epoch rev: 31270 Checksum: 315
Satellite: AAUSAT2 Catalog number: 32788 Epoch time: 14037.78945154 Element set: 834 Inclination: 097.7218 deg RA of node: 095.8606 deg Eccentricity: 0.0012639 Arg of perigee: 247.9920 deg Mean anomaly: 111.9954 deg Mean motion: 14.87373424 rev/day Decay rate: 4.844e-05 rev/day^2 Epoch rev: 31285 Checksum: 345
Satellite: DO-64 Catalog number: 32789 Epoch time: 14037.48551395 Element set: 871 Inclination: 097.7391 deg RA of node: 100.9152 deg Eccentricity: 0.0011956 Arg of perigee: 236.9781 deg Mean anomaly: 248.0531 deg Mean motion: 14.91062763 rev/day Decay rate: 8.871e-05 rev/day^2 Epoch rev: 31300 Checksum: 324
Satellite: CO-66 Catalog number: 32791 Epoch time: 14037.57482985 Element set: 830 Inclination: 097.7206 deg RA of node: 093.8284 deg Eccentricity: 0.0013616 Arg of perigee: 252.6048 deg Mean anomaly: 107.3679 deg Mean motion: 14.85665665 rev/day Decay rate: 4.823e-05 rev/day^2 Epoch rev: 31265 Checksum: 345
Satellite: RS-30 Catalog number: 32953 Epoch time: 14037.76158589 Element set: 628 Inclination: 082.5014 deg RA of node: 282.3168 deg Eccentricity: 0.0019594 Arg of perigee: 079.2781 deg Mean anomaly: 281.0502 deg Mean motion: 12.43042348 rev/day Decay rate: 1.0e-07 rev/day^2 Epoch rev: 25905 Checksum: 299
Satellite: METEOR-M Catalog number: 35865 Epoch time: 14037.76407288 Element set: 235 Inclination: 098.5700 deg RA of node: 089.0177 deg Eccentricity: 0.0003115 Arg of perigee: 106.8412 deg Mean anomaly: 253.3100 deg Mean motion: 14.21906850 rev/day Decay rate: -2.0e-08 rev/day^2 Epoch rev: 22780 Checksum: 271
Satellite: RS-38 Catalog number: 35869 Epoch time: 14037.70727509 Element set: 183 Inclination: 098.5626 deg RA of node: 088.8079 deg Eccentricity: 0.0005756 Arg of perigee: 113.4470 deg Mean anomaly: 001.1870 deg Mean motion: 14.22176868 rev/day Decay rate: 1.17e-06 rev/day^2 Epoch rev: 22782 Checksum: 327
Satellite: JUGNU Catalog number: 37839 Epoch time: 14036.27515883 Element set: 556 Inclination: 019.9622 deg RA of node: 334.3858 deg Eccentricity: 0.0019000 Arg of perigee: 331.5855 deg Mean anomaly: 163.3209 deg Mean motion: 14.12241710 rev/day Decay rate: 5.76e-06 rev/day^2 Epoch rev: 11988 Checksum: 303
Satellite: SRMSAT Catalog number: 37841 Epoch time: 14037.22209339 Element set: 556 Inclination: 019.9730 deg RA of node: 345.3465 deg Eccentricity: 0.0011730 Arg of perigee: 286.7515 deg Mean anomaly: 217.1676 deg Mean motion: 14.10295837 rev/day Decay rate: 4.51e-06 rev/day^2 Epoch rev: 11985 Checksum: 302
Satellite: RAX-2 Catalog number: 37853 Epoch time: 14037.46654437 Element set: 716 Inclination: 101.7115 deg RA of node: 005.0794 deg Eccentricity: 0.0225894 Arg of perigee: 074.3059 deg Mean anomaly: 038.3326 deg Mean motion: 14.86554818 rev/day Decay rate: 1.1989e-04 rev/day^2 Epoch rev: 12321 Checksum: 315
Satellite: AUBIESAT Catalog number: 37854 Epoch time: 14037.88542303 Element set: 701 Inclination: 101.7156 deg RA of node: 007.1268 deg Eccentricity: 0.0224751 Arg of perigee: 070.9133 deg Mean anomaly: 345.6355 deg Mean motion: 14.87574228 rev/day Decay rate: 1.4063e-04 rev/day^2 Epoch rev: 12331 Checksum: 282
